This is the latest recevied weather packets stored in our database for station/object IZ1UQG-1. If no packets are shown the sender has not sent any weather packets the latest 10 day(s).
| Time | Temp. | Humidity | Pressure | Rain* | Wind** | Luminosity | Snow |
|---|---|---|---|---|---|---|---|
| 1778124532 | 10.56° C | 83% | 1013.1 hPa | 120.14 mm | - | - | - |
| 1778124232 | 10.56° C | 83% | 1013.1 hPa | 120.65 mm | - | - | - |
| 1778123932 | 10.56° C | 83% | 1013 hPa | 136.14 mm | - | - | - |
| 1778123632 | 10.56° C | 83% | 1013 hPa | 126.75 mm | - | - | - |
| 1778123332 | 10.56° C | 83% | 1013 hPa | 131.32 mm | - | - | - |
| 1778123032 | 10.56° C | 83% | 1013 hPa | 130.3 mm | - | - | - |
| 1778122732 | 11.11° C | 83% | 1013 hPa | 121.16 mm | - | - | - |
| 1778122432 | 11.11° C | 83% | 1013 hPa | 129.79 mm | - | - | - |
| 1778122132 | 11.11° C | 82% | 1013 hPa | 136.14 mm | - | - | - |
| 1778121832 | 11.11° C | 82% | 1013.2 hPa | 137.16 mm | - | - | - |
| 1778121532 | 11.11° C | 82% | 1013 hPa | 137.67 mm | - | - | - |
| 1778121232 | 11.11° C | 82% | 1013 hPa | 142.24 mm | - | - | - |
| 1778120932 | 11.11° C | 82% | 1013 hPa | 138.18 mm | - | - | - |
| 1778120632 | 11.11° C | 83% | 1012.9 hPa | 134.11 mm | - | - | - |
| 1778120332 | 11.11° C | 83% | 1013 hPa | 124.21 mm | - | - | - |
| 1778120032 | 11.11° C | 82% | 1012.9 hPa | 141.22 mm | - | - | - |
| 1778119732 | 11.11° C | 83% | 1013 hPa | 133.6 mm | - | - | - |
| 1778119432 | 11.11° C | 83% | 1012.9 hPa | 127.25 mm | - | - | - |
| 1778119132 | 11.11° C | 82% | 1013 hPa | 140.21 mm | - | - | - |
| 1778118832 | 11.11° C | 83% | 1013 hPa | 138.68 mm | - | - | - |
| 1778118532 | 11.67° C | 83% | 1012.9 hPa | 133.1 mm | - | - | - |
| 1778118232 | 11.67° C | 82% | 1013 hPa | 127.76 mm | - | - | - |
| 1778117932 | 11.67° C | 83% | 1012.8 hPa | 145.54 mm | - | - | - |
| 1778117632 | 11.67° C | 83% | 1012.6 hPa | 146.05 mm | - | - | - |
| 1778117332 | 11.67° C | 82% | 1012.9 hPa | 143.26 mm | - | - | - |
* Rain latest hour (hover to see other rain measurements)
** Current wind speed in m/s (hover to see current wind gust speed)